Flag for Germany Weather past 2 weeks in Düren, North Rhine-Westphalia, Germany

Now
48 °F

Fog.


Feels Like: 48 °F
Forecast: 50 / 77 °F
Wind: 1 mph from Southwest

Location: Noervenich

Current Time: Jul 31, 2015 at 5:21:37 AM

Latest Report: Jul 31, 2015 at 4:20 AM


Visibility: 5 mi

Pressure: 30.12 "Hg

Humidity: 100%

Dew point: 48 °F

Location of DürenLocation

Historic Weather in Düren — Graph

°F

Düren temperature yesterday

Maximum temperature yesterday: 63 °F (at 1:20 PM)
Minimum temperature yesterday: 50 °F (at 1:20 AM)
Average temperature yesterday: 54 °F

Past Weeks' High & Low Weather Summary

 TemperatureHumidityPressure
High93 °F (Jul 17, 3:20 PM)100% (Jul 19, 4:20 AM)30.12 "Hg (Jul 19, 4:20 AM)
Low50 °F (Jul 26, 3:20 AM)23% (Jul 17, 3:20 PM)29.53 "Hg (Jul 25, 7:20 AM)
Average66 °F72%29.89 "Hg
* Reported Jul 16 3:20 AM — Jul 31 3:20 AM, Düren, Weather by CustomWeather, © 2015

Note: Actual official high and low records may vary slightly from our data, if they occured in-between our weather recording intervals... More about our weather records

Advertising

Düren weather history for previous 24 hours

 ConditionsComfort  
Time TempWeatherWind HumidityBarometerVisibility
3:20 AM
Fri, Jul 31
50 °FPassing clouds.5 mph94%30.12 "HgN/A
2:20 AM50 °FPassing clouds.5 mph94%30.12 "HgN/A
1:20 AM52 °FPartly cloudy.6 mph94%30.12 "HgN/A
12:20 AM54 °FPartly cloudy.5 mph94%30.09 "HgN/A
11:20 PM
Thu, Jul 30
54 °FPartly cloudy.5 mph94%30.09 "HgN/A
10:20 PM52 °FBroken clouds.5 mph100%30.09 "HgN/A
9:20 PM52 °FRain showers. Broken clouds.3 mph94%30.07 "HgN/A
8:20 PM55 °FBroken clouds.6 mph82%30.07 "HgN/A
7:20 PM57 °FPartly sunny.3 mph88%30.04 "HgN/A
6:20 PM55 °FBroken clouds.6 mph94%30.04 "HgN/A
5:20 PM55 °FRain showers. Broken clouds.6 mph94%30.04 "Hg4 mi
4:20 PM61 °FBroken clouds.6 mph68%30.04 "HgN/A
3:20 PM59 °FBroken clouds.7 mph82%30.01 "HgN/A
2:20 PM55 °FSprinkles. Partly sunny.7 mph88%30.01 "HgN/A
1:20 PM63 °FPartly sunny.7 mph68%29.98 "Hg6 mi
12:20 PM55 °FSprinkles. Broken clouds.7 mph88%30.01 "HgN/A
11:20 AM55 °FBroken clouds.3 mph82%29.98 "HgN/A
10:20 AM57 °FBroken clouds.7 mph77%29.98 "HgN/A
9:20 AM55 °FBroken clouds.2 mph88%29.98 "HgN/A
8:20 AM54 °FBroken clouds.3 mph88%29.98 "HgN/A
7:20 AM52 °FBroken clouds.2 mph88%29.95 "HgN/A
6:20 AM52 °FPassing clouds.No wind82%29.95 "HgN/A
5:20 AM52 °FPassing clouds.5 mph82%29.95 "HgN/A
Weather by CustomWeather, © 2015

See weather overviewHow to use our weather pages